User: anonymous   Login
Location: Borea
(45.6167°N, 23.0167°E)
Time: 21:14:59
(UTC+00:00)
Language:

FENGYUN 1C DEB - Orbit

View from above orbital plane
View from above orbital plane
View from above satellite
View from above satellite

Ground track
Ground track

The orbit data is extracted from the following two-line orbital elements,

1 31267U 99025BMZ 24050.66562264  .00046735  00000-0  56819-2 0  9998
2 31267  99.3010  26.8846 0070498 277.2084  82.1114 14.81511799552897
Epoch (UTC): 19 February 2024 15:58:29
Eccentricity: 0.0070498
inclination: 99.3010°
perigee height: 575 km
apogee height: 674 km
right ascension of ascending node: 26.8846°
argument of perigee: 277.2084°
revolutions per day: 14.81511799
mean anomaly at epoch: 82.1114°
orbit number at epoch: 55289

The dashed part of the orbit path shows where the satellite is in the earth's shadow,  

DLR